Theta_e
320 324 328 335 329 328 328 332 334 331 330 326 327 345 350 349 355 353 348 350 349 350 349 344 344 349 350 350 350 348 345 343 336 343 346 345 346 346 347 347 347 347 346 348 348 347 345 346 346
316 323 333 328 325 330 330 327 327 328 327 326 327 340 347 352 348 347 347 348 349 349 350 347 341 347 349 350 349 348 345 343 339 343 345 343 346 346 346 345 347 346 344 346 346 344 344 342 344
314 324 330 329 327 327 328 328 325 323 325 327 328 340 346 349 346 346 347 348 350 349 349 348 343 342 346 347 348 347 342 341 343 343 344 347 345 347 345 343 345 347 346 342 342 341 341 341 342
322 326 323 331 335 331 329 323 322 321 320 324 327 348 342 345 347 347 346 348 349 349 349 349 347 339 343 347 347 344 345 344 343 344 345 344 346 344 344 344 346 345 345 340 340 340 340 340 342
325 328 331 329 326 325 323 322 320 319 318 321 322 344 343 345 347 347 343 347 350 350 349 349 348 341 340 344 345 346 347 345 344 343 344 345 345 345 342 343 344 344 344 343 343 341 340 342 341
325 321 329 332 330 323 322 321 319 319 318 319 321 341 342 341 346 347 345 348 351 350 350 350 348 344 342 344 343 346 348 346 344 342 342 344 344 344 342 342 342 343 343 342 343 339 339 340 340
327 325 323 322 322 320 319 318 317 318 319 321 318 338 336 337 343 346 346 347 350 351 351 349 347 346 343 344 346 345 345 346 344 342 342 343 343 343 343 341 340 343 342 342 338 338 340 339 338
324 321 322 320 320 319 319 319 318 318 320 319 317 333 334 331 342 345 343 341 346 347 348 347 346 346 345 344 344 344 341 343 343 340 339 340 341 341 341 341 342 341 340 338 337 335 337 336 334
319 323 320 321 321 321 319 319 319 319 318 318 319 320 324 330 334 340 339 341 344 345 345 346 345 346 344 342 343 343 339 340 341 338 338 339 340 340 339 339 341 341 338 336 335 334 333 331 330
320 319 321 321 319 319 319 318 319 320 319 319 317 318 323 327 331 334 336 341 340 342 342 342 343 344 345 344 343 342 342 339 340 338 338 339 340 339 338 337 339 339 336 336 334 333 332 329 327
321 322 322 323 321 320 319 319 318 317 317 317 320 319 318 319 319 320 321 336 340 340 340 342 344 344 343 343 342 342 341 339 339 338 338 337 339 338 337 336 339 340 335 334 334 332 330 328 326
321 321 322 321 320 320 320 320 320 319 317 317 317 317 318 318 318 318 321 330 325 331 333 337 341 343 342 343 343 342 341 340 339 338 337 336 336 337 335 335 335 336 333 333 333 332 330 327 326
319 319 320 319 319 319 320 320 320 320 318 317 318 318 318 317 318 320 320 321 321 322 322 325 329 337 341 342 342 341 340 340 338 338 336 335 334 332 333 333 333 334 334 333 333 332 330 327 325
318 319 319 319 320 319 320 319 319 319 317 318 319 318 317 317 318 320 321 322 322 322 322 322 330 334 339 340 341 340 339 338 337 337 336 334 330 330 326 326 327 331 333 333 333 331 331 327 325
320 320 318 318 318 319 319 320 320 319 318 317 317 317 317 317 319 320 321 320 319 319 320 321 322 330 329 336 338 338 336 337 338 336 331 328 332 330 326 325 327 328 333 332 331 330 327 326 324
320 319 320 318 319 319 319 320 318 316 316 315 313 315 317 317 317 320 321 321 321 321 320 320 322 324 329 334 330 333 335 336 334 334 331 334 332 330 325 326 328 331 328 332 331 324 325 325 324
317 318 318 319 318 319 319 319 318 316 315 316 313 314 315 318 320 322 323 323 323 323 322 321 321 322 324 328 329 330 333 331 331 332 332 333 332 328 326 325 327 329 329 331 328 322 325 324 323
318 319 318 318 318 319 319 317 315 315 315 316 315 314 315 319 321 322 323 323 322 323 323 323 321 321 321 323 323 329 331 332 332 332 330 329 328 327 322 324 326 325 327 327 325 321 324 324 323
318 318 318 316 317 317 317 317 316 315 313 311 313 312 319 320 320 322 322 322 323 323 324 324 322 321 321 322 324 328 330 331 333 333 330 329 329 325 326 326 326 330 328 326 325 321 324 322 322
319 319 319 317 317 315 315 314 313 312 312 311 311 314 320 320 319 320 322 322 323 325 326 325 322 321 321 321 322 325 327 330 331 333 334 334 332 332 332 324 325 329 327 326 324 321 320 320 322
320 319 317 318 317 315 315 315 314 314 316 316 314 318 320 320 320 321 322 323 323 325 327 327 325 322 321 321 323 325 328 329 329 332 333 333 332 332 331 329 324 329 327 326 324 322 321 319 320
322 318 319 320 316 317 313 316 312 312 321 321 321 321 320 320 319 321 322 323 324 325 326 327 326 326 322 321 325 326 329 329 330 331 331 333 332 332 332 330 328 327 326 324 323 321 321 319 317
320 317 318 317 316 316 315 315 313 314 322 319 320 320 319 319 319 320 322 324 324 324 325 327 326 326 326 324 326 327 329 329 330 329 329 328 330 330 333 332 331 328 324 322 322 322 321 321 318
318 317 315 315 315 318 316 316 313 313 319 319 320 321 320 319 319 321 324 324 324 324 324 325 328 328 328 327 328 328 328 327 327 327 325 327 327 327 329 331 332 329 323 321 322 321 321 320 319
316 316 317 319 318 319 316 315 314 314 317 321 322 322 320 319 320 323 323 323 323 323 324 324 326 328 329 329 328 328 327 326 325 325 325 326 326 326 328 330 327 326 322 321 321 321 320 320 319
315 315 317 317 320 320 318 322 322 319 317 319 323 322 320 319 321 323 322 322 322 322 322 323 324 327 328 329 328 327 326 323 322 322 322 323 324 324 326 328 326 323 322 322 322 322 321 320 320
315 316 315 317 317 316 317 316 316 320 323 324 323 322 321 319 320 323 322 321 321 321 321 321 322 323 324 325 324 323 320 321 320 321 321 322 323 323 323 324 324 323 322 321 321 321 321 319 319
315 314 318 315 320 321 317 317 317 323 324 324 324 323 321 319 320 321 322 321 321 320 320 321 321 321 321 322 322 321 321 321 321 318 319 320 320 320 323 324 324 324 323 322 320 322 321 320 320
315 316 315 315 316 319 320 318 313 319 322 325 324 322 321 319 319 321 321 320 320 320 319 319 319 319 319 319 319 319 319 320 320 320 316 315 316 317 322 323 324 324 324 323 322 322 322 322 322
316 317 314 316 316 315 314 317 313 315 320 323 323 322 320 319 319 319 320 319 319 319 318 318 318 317 317 317 317 317 317 317 318 317 317 317 318 318 320 319 320 321 321 321 320 320 319 321 320
Wind_Speed
7 8 7 3 4 4 3 5 2 3 2 1 2 7 8 3 2 2 3 18 10 23 23 20 19 18 17 15 15 13 12 11 10 11 11 9 9 9 12 14 16 17 18 19 20 20 19 21 23
6 3 2 2 4 2 4 4 4 2 2 2 6 5 4 3 3 3 3 8 15 22 23 21 20 19 17 15 14 13 12 11 13 13 12 9 10 11 11 14 17 18 17 19 19 20 19 22 23
2 1 3 4 3 3 2 1 4 2 2 3 4 6 3 3 3 7 5 11 20 21 23 22 19 19 19 17 15 13 13 13 14 13 12 13 12 11 11 13 16 17 17 19 21 20 20 23 24
2 4 3 3 4 5 4 5 4 2 7 7 4 5 3 6 2 0 5 14 21 22 23 23 20 19 20 18 16 15 15 15 15 14 13 13 13 12 12 14 15 16 15 17 21 23 22 22 23
2 2 2 1 2 4 1 3 3 3 4 3 2 4 3 3 6 11 8 17 21 23 23 23 21 20 19 18 17 17 16 15 15 15 14 13 13 12 12 13 14 14 14 18 20 22 23 23 23
3 2 2 2 3 3 2 4 4 2 2 3 5 4 1 1 6 11 14 13 18 22 22 22 19 20 19 19 18 18 19 16 15 15 15 14 13 13 13 13 12 14 14 19 20 23 24 24 26
4 3 3 3 3 4 5 3 4 5 3 2 7 4 1 1 4 6 11 8 15 18 16 15 17 18 17 19 19 18 16 17 15 15 15 15 13 13 13 14 13 14 17 18 20 22 23 25 24
4 3 1 3 2 4 3 4 5 4 2 1 5 5 4 5 5 4 6 9 7 14 14 12 14 15 17 17 16 16 16 16 16 15 14 16 16 15 15 15 14 14 16 18 21 22 28 27 25
3 3 2 3 1 1 4 2 2 1 5 1 1 7 8 16 11 6 1 5 8 9 11 11 13 15 16 17 17 16 16 17 17 15 14 15 16 15 14 14 15 15 17 20 25 25 25 26 24
3 3 6 3 2 2 3 3 4 3 3 2 2 4 9 12 11 8 5 4 5 9 9 10 12 14 16 19 18 18 18 19 19 20 19 18 17 17 15 12 13 14 16 19 25 24 27 26 26
3 4 3 3 2 5 3 4 2 5 2 7 4 7 7 7 10 10 6 12 9 8 10 10 12 13 15 16 18 22 22 21 23 25 23 20 20 19 15 13 12 12 15 19 24 24 25 26 26
2 8 6 6 4 4 3 1 5 3 6 4 8 12 7 7 6 8 10 12 10 10 10 11 11 14 15 16 17 20 24 27 28 28 26 24 23 22 17 14 10 12 15 19 26 23 21 26 26
5 6 6 8 6 7 4 5 6 6 9 6 7 6 8 7 7 7 9 9 10 10 9 13 13 13 14 16 16 17 18 29 33 34 31 24 17 13 18 16 10 14 14 20 27 20 19 26 29
3 3 6 6 4 4 5 6 5 8 9 4 9 10 10 9 10 9 9 11 10 9 11 12 16 16 15 15 15 16 17 26 32 34 30 27 25 23 17 22 12 15 18 21 24 19 18 29 31
3 5 7 6 5 7 6 7 10 14 4 8 10 9 8 9 11 17 15 4 3 7 7 11 16 18 17 16 14 15 15 23 29 35 31 31 31 32 28 22 26 24 20 18 21 12 27 32 31
4 3 2 5 2 6 10 9 9 8 7 11 10 9 9 8 3 11 9 7 5 4 4 7 14 20 20 19 15 16 16 19 24 29 33 37 38 26 25 24 26 26 17 19 16 16 31 34 35
3 3 5 8 6 3 8 6 13 7 8 9 8 9 10 7 6 8 7 5 3 3 6 6 6 12 18 18 16 14 14 16 20 26 31 39 31 25 23 23 25 23 18 18 16 19 35 32 30
5 4 5 5 4 4 6 10 8 7 6 9 9 8 7 7 5 7 6 5 4 4 6 10 15 17 17 18 16 15 16 15 17 21 23 27 29 25 20 25 22 18 22 23 26 18 35 36 31
1 3 6 6 9 6 8 10 13 10 6 9 9 7 8 8 6 7 6 7 8 4 4 6 9 13 16 15 18 16 20 19 18 18 22 27 30 27 22 23 24 27 30 36 31 19 40 34 34
8 8 9 9 6 5 7 11 11 9 9 10 14 11 11 7 5 4 6 5 5 7 8 7 6 12 14 13 15 19 20 21 18 17 17 17 19 28 30 28 28 31 36 36 33 24 29 30 37
9 9 6 8 4 4 4 10 8 4 2 2 4 13 9 10 9 5 5 9 11 10 10 10 5 10 13 15 15 17 19 19 19 18 17 19 20 21 25 30 33 34 38 41 38 27 32 30 30
13 8 10 5 2 3 3 6 7 7 5 4 8 9 9 9 6 6 6 7 7 9 9 7 5 8 8 11 14 19 23 20 23 23 20 18 20 20 22 27 32 36 39 38 43 34 33 33 30
9 8 6 4 2 2 3 2 6 1 5 7 7 7 8 8 8 7 6 6 6 5 7 6 2 3 3 9 14 19 23 21 13 12 12 12 15 17 20 27 31 36 33 35 37 36 38 37 32
4 4 6 5 2 4 8 8 6 4 7 6 5 7 9 8 8 7 10 9 5 4 5 6 7 5 4 9 11 13 12 8 7 7 7 10 12 16 19 27 31 36 35 36 36 36 37 34 32
4 6 2 3 2 6 3 3 10 6 7 16 18 13 10 8 8 7 7 7 4 5 5 4 6 8 8 8 7 6 5 3 4 7 9 12 14 15 21 25 30 35 37 33 35 35 36 36 35
7 9 6 6 4 5 1 6 6 4 5 7 12 14 11 8 7 7 6 8 5 3 4 4 5 8 8 9 9 7 5 3 3 6 10 15 16 19 20 24 31 38 40 35 30 30 30 31 31
6 5 7 4 1 1 5 7 8 5 6 13 15 14 12 9 8 8 8 10 6 4 3 2 4 5 7 10 9 9 5 3 3 5 9 14 17 19 21 27 33 35 37 36 33 34 33 30 25
11 8 3 2 3 5 5 5 8 5 6 9 14 14 12 9 8 7 7 10 8 6 5 4 5 6 5 6 5 5 4 5 2 3 4 14 18 21 28 30 32 33 33 31 22 24 23 18 18
3 5 3 5 6 5 2 6 6 12 13 17 13 13 14 12 9 9 8 11 11 8 7 7 6 7 7 6 7 8 9 7 5 5 9 18 22 24 29 31 29 29 30 27 24 24 24 25 20
17 15 8 5 5 5 3 6 3 8 14 13 14 12 12 12 10 8 9 12 11 10 9 9 9 9 8 8 9 9 8 8 10 9 12 17 22 21 23 24 24 24 22 22 23 25 22 22 20
Wind_Direction
276 290 311 55 58 65 275 266 321 26 56 276 293 92 116 68 35 168 138 184 209 172 175 176 175 168 166 161 158 159 159 152 142 132 133 123 124 123 125 127 126 121 118 113 112 102 93 101 96
271 311 72 86 90 72 269 276 95 89 208 7 43 96 41 93 92 136 125 177 180 176 175 176 179 175 172 171 169 167 165 161 150 144 134 138 127 125 129 134 130 123 115 115 113 107 98 101 102
258 350 88 111 121 183 209 277 178 145 359 68 57 55 39 38 92 165 181 163 171 173 177 176 179 182 178 180 176 172 164 158 153 153 142 141 133 132 133 127 127 123 121 123 121 107 107 112 104
72 21 22 113 195 250 223 217 244 61 10 32 100 67 55 7 68 158 171 173 165 175 181 181 182 184 183 178 173 169 162 158 158 158 154 140 139 137 134 131 129 130 128 129 128 113 113 115 107
55 51 91 259 207 258 225 222 216 101 107 356 64 130 77 14 73 49 129 175 171 179 185 187 186 185 182 180 175 172 170 163 163 163 163 153 147 148 141 137 140 139 133 133 127 118 117 112 108
37 101 87 221 245 262 257 190 122 95 66 4 67 96 140 11 71 72 95 173 183 182 189 192 196 190 185 181 181 180 177 169 166 168 168 164 155 153 148 146 148 142 139 139 133 124 117 115 111
124 97 196 207 263 303 187 197 133 136 101 92 143 115 230 313 66 107 91 101 194 195 188 200 200 199 194 192 184 188 191 176 171 168 169 168 166 158 153 151 151 146 142 146 135 128 124 122 118
107 92 212 248 203 268 224 143 155 133 159 289 121 165 196 221 152 120 91 95 133 191 202 197 209 204 207 205 200 196 192 190 179 170 167 171 171 165 160 154 154 154 152 148 138 126 130 127 121
87 72 223 243 299 283 310 197 334 182 114 36 129 154 190 167 164 159 208 102 138 157 187 189 204 212 213 215 208 207 200 196 188 175 173 168 163 160 160 159 156 156 155 150 143 130 134 130 124
98 133 220 211 250 164 323 315 182 109 42 319 47 55 145 160 167 167 194 223 135 161 170 188 201 207 212 214 210 207 206 198 186 181 175 171 162 157 155 157 158 161 158 158 150 136 142 134 126
183 204 220 278 227 180 161 294 321 135 199 217 192 172 178 165 170 154 190 207 201 172 180 192 200 205 211 215 214 210 205 196 189 183 177 169 163 159 154 154 161 173 166 162 157 144 147 141 133
196 237 235 261 256 207 198 227 310 200 231 212 169 175 174 167 167 169 160 162 178 184 193 192 203 207 211 214 218 219 210 198 192 183 179 173 175 165 157 149 173 188 179 175 167 154 145 146 139
206 253 254 263 280 237 172 223 229 250 241 206 196 185 170 166 161 167 183 181 190 193 203 205 210 219 217 215 218 221 220 203 196 188 178 169 150 150 171 159 192 195 194 183 174 173 143 156 145
247 242 264 269 247 234 204 238 141 255 243 204 179 194 186 184 183 163 178 193 210 235 251 240 215 215 216 224 229 236 230 206 202 190 176 178 192 187 218 197 197 224 188 188 181 185 160 159 148
276 318 323 252 227 228 182 276 226 241 198 246 203 212 210 208 189 196 210 203 269 247 241 218 218 215 217 224 233 238 252 210 199 197 193 199 186 195 205 191 188 210 200 196 187 196 161 155 149
325 28 350 298 168 237 152 258 257 257 202 244 235 207 207 217 94 109 107 101 85 56 66 236 232 212 207 215 228 240 239 215 218 214 201 198 193 200 203 192 186 182 218 235 214 183 154 154 151
326 230 220 312 215 151 175 248 257 221 196 233 214 200 208 129 96 107 98 80 54 335 298 271 227 216 217 210 221 228 231 234 227 223 210 200 201 198 183 186 177 174 181 219 194 175 159 150 151
212 230 238 233 285 169 227 258 269 257 223 232 218 200 145 145 154 119 92 60 353 313 288 284 261 227 215 207 207 213 213 230 218 218 212 190 200 200 194 194 185 190 168 181 189 181 159 154 150
259 254 269 268 262 205 230 243 252 254 257 251 235 167 158 153 155 127 89 58 32 357 310 304 254 229 216 198 202 209 201 217 225 224 205 202 204 209 204 195 193 187 179 176 177 173 155 153 150
256 263 271 273 242 193 255 252 248 236 235 221 217 159 161 148 145 143 108 76 41 20 357 316 264 231 237 235 215 214 207 208 213 213 218 221 226 220 221 194 192 193 181 178 179 180 150 153 157
241 234 243 240 289 308 296 285 251 240 200 69 117 153 145 155 156 146 91 45 23 6 344 325 262 249 249 230 219 206 200 196 210 214 211 216 223 227 222 212 202 199 189 180 183 190 157 157 160
254 212 235 256 59 252 48 285 255 246 175 128 129 139 148 151 137 112 85 52 26 353 343 338 263 270 221 207 211 198 183 188 206 212 215 217 225 234 228 216 211 204 190 185 184 193 168 162 161
232 208 202 207 224 348 197 233 271 93 195 181 185 166 161 152 140 134 107 88 51 347 350 9 280 169 199 199 209 205 193 200 206 209 218 226 223 226 227 224 210 204 187 186 186 183 178 173 169
193 109 41 40 72 297 214 174 276 218 200 162 171 181 165 158 149 126 119 98 68 37 8 25 55 114 149 193 204 206 185 182 196 216 220 227 237 252 237 217 207 203 188 186 183 183 177 175 175
107 96 325 328 357 229 160 162 249 260 219 181 176 175 173 160 146 139 128 116 101 54 32 27 64 84 121 150 167 179 169 212 250 239 239 234 225 242 235 213 188 190 183 178 172 176 181 180 180
184 155 163 215 206 252 314 231 251 270 277 159 161 151 156 156 145 132 131 125 113 95 62 59 95 89 115 135 136 149 157 190 252 241 238 235 227 222 207 212 193 177 170 174 175 186 188 189 191
181 188 181 105 352 28 236 286 311 67 83 134 146 155 162 164 151 140 139 130 135 125 104 93 93 104 114 135 146 149 144 120 176 240 230 226 221 208 186 173 163 162 168 168 189 194 192 190 188
179 160 98 38 210 237 273 263 245 226 180 162 162 166 164 158 149 148 147 145 148 145 136 138 118 118 119 139 165 158 171 173 152 143 208 209 195 178 169 155 150 153 164 175 175 190 186 190 196
147 175 143 145 156 197 272 257 216 200 185 181 179 170 166 165 163 157 151 155 160 159 151 145 137 126 122 138 144 146 151 160 148 106 144 146 164 161 154 153 149 152 159 170 188 193 188 188 185
213 199 156 147 218 214 181 269 327 206 192 173 169 172 166 166 163 153 147 148 159 166 160 152 143 132 130 134 136 139 142 145 142 129 134 146 150 149 140 143 146 151 151 164 174 174 166 164 170